Time,TemperatureF,DewpointF,PressureIn,WindDirection,WindDirectionDegrees,WindSpeedMPH,WindSpeedGustMPH,Humidity,HourlyPrecipIn,Conditions,Clouds,dailyrainin,SoftwareType,DateUTC
2013-04-08 00:00:00,58.0,44.6,30.08,SSW,211,0.0,1.0,61,0.00,,---,0.00,VWS V14.01,2013-04-08 04:00:00,
2013-04-08 00:01:00,58.0,44.6,30.08,SSW,211,0.0,1.0,61,0.00,,---,0.00,VWS V14.01,2013-04-08 04:01:00,
2013-04-08 00:06:00,58.0,44.6,30.08,SSW,211,0.0,1.0,61,0.00,,---,0.00,VWS V14.01,2013-04-08 04:06:00,
2013-04-08 00:11:00,57.9,45.0,30.08,SSW,211,0.0,2.0,62,0.00,,---,0.00,VWS V14.01,2013-04-08 04:11:00,
2013-04-08 00:16:00,57.6,44.7,30.08,SSW,211,0.0,2.0,62,0.00,,---,0.00,VWS V14.01,2013-04-08 04:16:00,
2013-04-08 00:21:00,57.3,44.4,30.08,SSW,211,1.0,1.0,62,0.00,,---,0.00,VWS V14.01,2013-04-08 04:21:00,
2013-04-08 00:26:00,57.2,44.3,30.08,SSW,211,1.0,1.0,62,0.00,,---,0.00,VWS V14.01,2013-04-08 04:26:00,
2013-04-08 00:31:00,57.1,44.6,30.08,SSW,211,0.0,2.0,63,0.00,,---,0.00,VWS V14.01,2013-04-08 04:31:00,
2013-04-08 00:36:00,56.9,44.5,30.08,SSW,211,0.0,1.0,63,0.00,,---,0.00,VWS V14.01,2013-04-08 04:36:00,
2013-04-08 00:41:00,56.7,44.7,30.08,SSW,211,0.0,0.0,64,0.00,,---,0.00,VWS V14.01,2013-04-08 04:41:00,
2013-04-08 00:46:00,56.4,44.4,30.08,SSW,211,0.0,0.0,64,0.00,,---,0.00,VWS V14.01,2013-04-08 04:46:00,
2013-04-08 00:51:00,56.1,44.5,30.08,SSW,211,2.0,2.0,65,0.00,,---,0.00,VWS V14.01,2013-04-08 04:51:00,
2013-04-08 00:56:00,55.7,44.1,30.08,SSW,211,1.0,2.0,65,0.00,,---,0.00,VWS V14.01,2013-04-08 04:56:00,
2013-04-08 01:01:00,55.4,44.2,30.08,SSW,211,0.0,2.0,66,0.00,,---,0.00,VWS V14.01,2013-04-08 05:01:00,
2013-04-08 01:06:00,55.0,44.3,30.08,SSW,211,1.0,2.0,67,0.00,,---,0.00,VWS V14.01,2013-04-08 05:06:00,
2013-04-08 01:11:00,54.6,44.3,30.08,SSW,211,1.0,2.0,68,0.00,,---,0.00,VWS V14.01,2013-04-08 05:11:00,
2013-04-08 01:16:00,54.2,44.3,30.08,SSW,211,0.0,3.0,69,0.00,,---,0.00,VWS V14.01,2013-04-08 05:16:00,
2013-04-08 01:21:00,53.7,43.8,30.08,SSW,211,0.0,2.0,69,0.00,,---,0.00,VWS V14.01,2013-04-08 05:21:00,
2013-04-08 01:27:00,53.4,43.9,30.08,SSW,211,0.0,0.0,70,0.00,,---,0.00,VWS V14.01,2013-04-08 05:27:00,
2013-04-08 01:32:00,53.1,43.6,30.08,SSW,211,0.0,0.0,70,0.00,,---,0.00,VWS V14.01,2013-04-08 05:32:00,
2013-04-08 01:37:00,52.8,43.7,30.08,SSW,211,0.0,0.0,71,0.00,,---,0.00,VWS V14.01,2013-04-08 05:37:00,
2013-04-08 01:41:00,52.5,43.4,30.08,SSW,211,0.0,0.0,71,0.00,,---,0.00,VWS V14.01,2013-04-08 05:41:00,
2013-04-08 01:46:00,52.1,43.4,30.08,SSW,211,0.0,0.0,72,0.00,,---,0.00,VWS V14.01,2013-04-08 05:46:00,
2013-04-08 01:51:00,51.7,43.3,30.08,SSW,211,0.0,0.0,73,0.00,,---,0.00,VWS V14.01,2013-04-08 05:51:00,
2013-04-08 01:57:00,51.4,43.4,30.08,SSW,211,0.0,0.0,74,0.00,,---,0.00,VWS V14.01,2013-04-08 05:57:00,
2013-04-08 02:02:00,51.0,43.4,30.08,SSW,211,0.0,0.0,75,0.00,,---,0.00,VWS V14.01,2013-04-08 06:02:00,
2013-04-08 02:07:00,50.6,43.3,30.08,SSW,211,1.0,1.0,76,0.00,,---,0.00,VWS V14.01,2013-04-08 06:07:00,
2013-04-08 02:12:00,50.3,43.0,30.08,SSW,211,0.0,1.0,76,0.00,,---,0.00,VWS V14.01,2013-04-08 06:12:00,
2013-04-08 02:17:00,50.1,43.2,30.08,SSW,211,0.0,1.0,77,0.00,,---,0.00,VWS V14.01,2013-04-08 06:17:00,
2013-04-08 02:22:00,49.9,43.0,30.08,SSW,211,0.0,0.0,77,0.00,,---,0.00,VWS V14.01,2013-04-08 06:22:00,
2013-04-08 02:27:00,49.6,43.0,30.08,SSW,211,0.0,0.0,78,0.00,,---,0.00,VWS V14.01,2013-04-08 06:27:00,
2013-04-08 02:32:00,49.3,42.7,30.08,SSW,211,0.0,0.0,78,0.00,,---,0.00,VWS V14.01,2013-04-08 06:32:00,
2013-04-08 02:37:00,49.0,42.8,30.08,SSW,211,0.0,0.0,79,0.00,,---,0.00,VWS V14.01,2013-04-08 06:37:00,
2013-04-08 02:42:00,48.8,42.6,30.08,SSW,211,0.0,0.0,79,0.00,,---,0.00,VWS V14.01,2013-04-08 06:42:00,
2013-04-08 02:47:00,48.7,42.8,30.08,SSW,211,0.0,0.0,80,0.00,,---,0.00,VWS V14.01,2013-04-08 06:47:00,
2013-04-08 02:52:00,48.5,42.6,30.08,SSW,211,0.0,0.0,80,0.00,,---,0.00,VWS V14.01,2013-04-08 06:52:00,
2013-04-08 02:57:00,48.2,42.7,30.07,SSW,211,0.0,1.0,81,0.00,,---,0.00,VWS V14.01,2013-04-08 06:57:00,
2013-04-08 03:02:00,47.9,42.7,30.07,SSW,211,0.0,1.0,82,0.00,,---,0.00,VWS V14.01,2013-04-08 07:02:00,
2013-04-08 03:07:00,47.8,42.9,30.07,SSW,211,0.0,0.0,83,0.00,,---,0.00,VWS V14.01,2013-04-08 07:07:00,
2013-04-08 03:12:00,47.9,43.3,30.07,SSW,211,0.0,0.0,84,0.00,,---,0.00,VWS V14.01,2013-04-08 07:12:00,
2013-04-08 03:17:00,47.9,43.0,30.07,SSW,211,0.0,0.0,83,0.00,,---,0.00,VWS V14.01,2013-04-08 07:17:00,
2013-04-08 03:22:00,47.8,42.9,30.07,SSW,211,0.0,0.0,83,0.00,,---,0.00,VWS V14.01,2013-04-08 07:22:00,
2013-04-08 03:27:00,47.6,42.7,30.07,SSW,211,0.0,0.0,83,0.00,,---,0.00,VWS V14.01,2013-04-08 07:27:00,
2013-04-08 03:32:00,47.3,42.4,30.07,SSW,211,0.0,0.0,83,0.00,,---,0.00,VWS V14.01,2013-04-08 07:32:00,
2013-04-08 03:37:00,47.1,42.5,30.07,SSW,211,0.0,0.0,84,0.00,,---,0.00,VWS V14.01,2013-04-08 07:37:00,
2013-04-08 03:42:00,46.9,42.6,30.07,SSW,211,0.0,0.0,85,0.00,,---,0.00,VWS V14.01,2013-04-08 07:42:00,
2013-04-08 03:47:00,46.7,42.4,30.07,SSW,211,0.0,0.0,85,0.00,,---,0.00,VWS V14.01,2013-04-08 07:47:00,
2013-04-08 03:52:00,46.5,42.2,30.07,SSW,211,0.0,1.0,85,0.00,,---,0.00,VWS V14.01,2013-04-08 07:52:00,
2013-04-08 03:57:00,46.2,42.0,30.07,SSW,211,0.0,0.0,85,0.00,,---,0.00,VWS V14.01,2013-04-08 07:57:00,
2013-04-08 04:02:00,46.1,42.2,30.07,SSW,211,0.0,0.0,86,0.00,,---,0.00,VWS V14.01,2013-04-08 08:02:00,
2013-04-08 04:07:00,45.9,42.0,30.07,SSW,211,0.0,0.0,86,0.00,,---,0.00,VWS V14.01,2013-04-08 08:07:00,
2013-04-08 04:12:00,46.0,42.3,30.07,SSW,211,0.0,0.0,87,0.00,,---,0.00,VWS V14.01,2013-04-08 08:12:00,
2013-04-08 04:17:00,46.2,42.5,30.07,SSW,211,0.0,0.0,87,0.00,,---,0.00,VWS V14.01,2013-04-08 08:17:00,
2013-04-08 04:22:00,46.4,42.8,30.07,SSW,211,0.0,0.0,87,0.00,,---,0.00,VWS V14.01,2013-04-08 08:22:00,
2013-04-08 04:27:00,46.2,42.0,30.07,SSW,211,0.0,1.0,85,0.00,,---,0.00,VWS V14.01,2013-04-08 08:27:00,
2013-04-08 04:32:00,46.0,41.8,30.07,SSW,211,0.0,0.0,85,0.00,,---,0.00,VWS V14.01,2013-04-08 08:32:00,
2013-04-08 04:37:00,45.8,41.9,30.08,SSW,211,0.0,0.0,86,0.00,,---,0.00,VWS V14.01,2013-04-08 08:37:00,
2013-04-08 04:42:00,45.6,42.0,30.08,SSW,211,0.0,0.0,87,0.00,,---,0.00,VWS V14.01,2013-04-08 08:42:00,
2013-04-08 04:47:00,45.4,41.8,30.08,SSW,211,0.0,0.0,87,0.00,,---,0.00,VWS V14.01,2013-04-08 08:47:00,
2013-04-08 04:52:00,45.3,42.0,30.08,SSW,211,0.0,0.0,88,0.00,,---,0.00,VWS V14.01,2013-04-08 08:52:00,
2013-04-08 04:57:00,45.3,42.0,30.08,SSW,211,0.0,0.0,88,0.00,,---,0.00,VWS V14.01,2013-04-08 08:57:00,
2013-04-08 05:02:00,45.3,42.0,30.08,SSW,211,0.0,0.0,88,0.00,,---,0.00,VWS V14.01,2013-04-08 09:02:00,
2013-04-08 05:07:00,45.3,42.0,30.08,SSW,211,0.0,0.0,88,0.00,,---,0.00,VWS V14.01,2013-04-08 09:07:00,
2013-04-08 05:12:00,45.2,41.9,30.08,SSW,211,0.0,0.0,88,0.00,,---,0.00,VWS V14.01,2013-04-08 09:12:00,
2013-04-08 05:17:00,45.0,41.7,30.08,SSW,211,0.0,0.0,88,0.00,,---,0.00,VWS V14.01,2013-04-08 09:17:00,
2013-04-08 05:22:00,44.9,41.6,30.09,SSW,211,0.0,0.0,88,0.00,,---,0.00,VWS V14.01,2013-04-08 09:22:00,
2013-04-08 05:27:00,44.6,41.3,30.08,SSW,211,0.0,0.0,88,0.00,,---,0.00,VWS V14.01,2013-04-08 09:27:00,
2013-04-08 05:32:00,44.5,41.5,30.08,SSW,211,0.0,0.0,89,0.00,,---,0.00,VWS V14.01,2013-04-08 09:32:00,
2013-04-08 05:37:00,44.5,41.8,30.09,SSW,211,0.0,0.0,90,0.00,,---,0.00,VWS V14.01,2013-04-08 09:37:00,
2013-04-08 05:42:00,44.5,41.8,30.09,SSW,211,0.0,0.0,90,0.00,,---,0.00,VWS V14.01,2013-04-08 09:42:00,
2013-04-08 05:47:00,44.5,41.8,30.09,SSW,211,0.0,0.0,90,0.00,,---,0.00,VWS V14.01,2013-04-08 09:47:00,
2013-04-08 05:52:00,44.5,41.8,30.09,SSW,211,0.0,0.0,90,0.00,,---,0.00,VWS V14.01,2013-04-08 09:52:00,
2013-04-08 05:57:00,44.4,41.7,30.09,SSW,211,1.0,1.0,90,0.00,,---,0.00,VWS V14.01,2013-04-08 09:57:00,
2013-04-08 06:02:00,44.3,41.6,30.09,SSW,211,0.0,1.0,90,0.00,,---,0.00,VWS V14.01,2013-04-08 10:02:00,
2013-04-08 06:07:00,44.2,41.5,30.09,SSW,211,0.0,1.0,90,0.00,,---,0.00,VWS V14.01,2013-04-08 10:07:00,
2013-04-08 06:12:00,44.0,41.3,30.09,SSW,211,0.0,0.0,90,0.00,,---,0.00,VWS V14.01,2013-04-08 10:12:00,
2013-04-08 06:17:00,43.9,41.2,30.09,SSW,211,0.0,1.0,90,0.00,,---,0.00,VWS V14.01,2013-04-08 10:17:00,
2013-04-08 06:22:00,43.7,41.0,30.09,SSW,211,0.0,0.0,90,0.00,,---,0.00,VWS V14.01,2013-04-08 10:22:00,
2013-04-08 06:27:00,43.6,40.9,30.09,SSW,211,0.0,0.0,90,0.00,,---,0.00,VWS V14.01,2013-04-08 10:27:00,
2013-04-08 06:32:00,43.5,41.0,30.10,SSW,211,0.0,0.0,91,0.00,,---,0.00,VWS V14.01,2013-04-08 10:32:00,
2013-04-08 06:37:00,43.4,41.0,30.10,SSW,211,0.0,0.0,91,0.00,,---,0.00,VWS V14.01,2013-04-08 10:37:00,
2013-04-08 06:42:00,43.2,40.8,30.10,SSW,211,0.0,0.0,91,0.00,,---,0.00,VWS V14.01,2013-04-08 10:42:00,
2013-04-08 06:47:00,43.1,40.7,30.10,SSW,211,0.0,0.0,91,0.00,,---,0.00,VWS V14.01,2013-04-08 10:47:00,
2013-04-08 06:52:00,42.9,40.5,30.10,SSW,211,0.0,0.0,91,0.00,,---,0.00,VWS V14.01,2013-04-08 10:52:00,
2013-04-08 06:57:00,42.8,40.4,30.10,SSW,211,0.0,0.0,91,0.00,,---,0.00,VWS V14.01,2013-04-08 10:57:00,
2013-04-08 07:02:00,42.8,40.6,30.10,SSW,211,0.0,0.0,92,0.00,,---,0.00,VWS V14.01,2013-04-08 11:02:00,
2013-04-08 07:07:00,42.8,40.6,30.11,SSW,211,0.0,0.0,92,0.00,,---,0.00,VWS V14.01,2013-04-08 11:07:00,
2013-04-08 07:12:00,42.7,40.5,30.11,SSW,211,1.0,2.0,92,0.00,,---,0.00,VWS V14.01,2013-04-08 11:12:00,
2013-04-08 07:17:00,42.7,40.5,30.11,SSW,211,1.0,2.0,92,0.00,,---,0.00,VWS V14.01,2013-04-08 11:17:00,
2013-04-08 07:22:00,42.6,40.4,30.11,SSW,211,1.0,2.0,92,0.00,,---,0.00,VWS V14.01,2013-04-08 11:22:00,
2013-04-08 07:27:00,42.6,40.4,30.11,SSW,211,1.0,1.0,92,0.00,,---,0.00,VWS V14.01,2013-04-08 11:27:00,
2013-04-08 07:32:00,42.5,40.3,30.11,SSW,211,0.0,1.0,92,0.00,,---,0.00,VWS V14.01,2013-04-08 11:32:00,
2013-04-08 07:37:00,42.6,40.7,30.11,SSW,211,0.0,2.0,93,0.00,,---,0.00,VWS V14.01,2013-04-08 11:37:00,
2013-04-08 07:42:00,42.8,40.9,30.12,SSW,211,0.0,0.0,93,0.00,,---,0.00,VWS V14.01,2013-04-08 11:42:00,
2013-04-08 07:47:00,42.9,41.0,30.12,SSW,211,0.0,0.0,93,0.00,,---,0.00,VWS V14.01,2013-04-08 11:47:00,
2013-04-08 07:52:00,42.9,41.0,30.12,SSW,211,0.0,0.0,93,0.00,,---,0.00,VWS V14.01,2013-04-08 11:52:00,
2013-04-08 07:57:00,43.1,41.2,30.12,SSW,211,0.0,0.0,93,0.00,,---,0.00,VWS V14.01,2013-04-08 11:57:00,
2013-04-08 08:02:00,43.2,41.3,30.12,SSW,211,0.0,1.0,93,0.00,,---,0.00,VWS V14.01,2013-04-08 12:02:00,
2013-04-08 08:07:00,43.5,41.6,30.12,SSW,211,0.0,0.0,93,0.00,,---,0.00,VWS V14.01,2013-04-08 12:07:00,
2013-04-08 08:12:00,43.8,41.9,30.12,SSW,211,0.0,0.0,93,0.00,,---,0.00,VWS V14.01,2013-04-08 12:12:00,
2013-04-08 08:17:00,44.2,42.3,30.12,SSW,211,0.0,0.0,93,0.00,,---,0.00,VWS V14.01,2013-04-08 12:17:00,
2013-04-08 08:22:00,44.5,42.6,30.12,SSW,211,0.0,0.0,93,0.00,,---,0.00,VWS V14.01,2013-04-08 12:22:00,
2013-04-08 08:27:00,44.9,42.7,30.12,SSW,211,0.0,0.0,92,0.00,,---,0.00,VWS V14.01,2013-04-08 12:27:00,
2013-04-08 08:32:00,45.4,43.2,30.12,SSW,211,0.0,1.0,92,0.00,,---,0.00,VWS V14.01,2013-04-08 12:32:00,
2013-04-08 08:37:00,46.1,43.6,30.12,SSW,211,1.0,1.0,91,0.00,,---,0.00,VWS V14.01,2013-04-08 12:37:00,
2013-04-08 08:42:00,47.0,44.2,30.12,SSW,211,0.0,2.0,90,0.00,,---,0.00,VWS V14.01,2013-04-08 12:42:00,
2013-04-08 08:47:00,48.0,44.9,30.12,SSW,211,1.0,2.0,89,0.00,,---,0.00,VWS V14.01,2013-04-08 12:47:00,
2013-04-08 08:52:00,49.0,45.0,30.12,SSW,211,0.0,3.0,86,0.00,,---,0.00,VWS V14.01,2013-04-08 12:52:00,
2013-04-08 08:57:00,49.7,45.1,30.12,SSW,211,0.0,0.0,84,0.00,,---,0.00,VWS V14.01,2013-04-08 12:57:00,
2013-04-08 09:02:00,50.4,45.8,30.12,SSW,211,0.0,1.0,84,0.00,,---,0.00,VWS V14.01,2013-04-08 13:02:00,
2013-04-08 09:07:00,51.4,45.8,30.12,SSW,211,0.0,0.0,81,0.00,,---,0.00,VWS V14.01,2013-04-08 13:07:00,
2013-04-08 09:12:00,52.4,46.4,30.12,SSW,211,0.0,1.0,80,0.00,,---,0.00,VWS V14.01,2013-04-08 13:12:00,
2013-04-08 09:17:00,53.4,47.4,30.12,SSW,211,0.0,1.0,80,0.00,,---,0.00,VWS V14.01,2013-04-08 13:17:00,
2013-04-08 09:22:00,54.2,46.8,30.12,SSW,211,3.0,3.0,76,0.00,,---,0.00,VWS V14.01,2013-04-08 13:22:00,
2013-04-08 09:27:00,54.9,47.1,30.12,SSW,211,0.0,3.0,75,0.00,,---,0.00,VWS V14.01,2013-04-08 13:27:00,
2013-04-08 09:32:00,55.6,47.8,30.12,SSW,211,0.0,2.0,75,0.00,,---,0.00,VWS V14.01,2013-04-08 13:32:00,
2013-04-08 09:37:00,56.3,47.4,30.12,SSW,211,2.0,2.0,72,0.00,,---,0.00,VWS V14.01,2013-04-08 13:37:00,
2013-04-08 09:42:00,57.0,47.3,30.12,SW,223,1.0,2.0,70,0.00,,---,0.00,VWS V14.01,2013-04-08 13:42:00,
2013-04-08 09:47:00,57.6,47.5,30.12,SW,223,0.0,2.0,69,0.00,,---,0.00,VWS V14.01,2013-04-08 13:47:00,
2013-04-08 09:52:00,58.2,47.7,30.12,SW,223,1.0,3.0,68,0.00,,---,0.00,VWS V14.01,2013-04-08 13:52:00,
2013-04-08 09:57:00,58.8,47.5,30.12,SW,223,0.0,2.0,66,0.00,,---,0.00,VWS V14.01,2013-04-08 13:57:00,
2013-04-08 10:02:00,59.4,47.2,30.12,SW,223,0.0,1.0,64,0.00,,---,0.00,VWS V14.01,2013-04-08 14:02:00,
2013-04-08 10:07:00,60.1,47.5,30.12,SW,223,1.0,2.0,63,0.00,,---,0.00,VWS V14.01,2013-04-08 14:07:00,
2013-04-08 10:12:00,61.0,47.9,30.12,SW,223,0.0,2.0,62,0.00,,---,0.00,VWS V14.01,2013-04-08 14:12:00,
2013-04-08 10:17:00,61.7,47.2,30.12,SW,224,0.0,3.0,59,0.00,,---,0.00,VWS V14.01,2013-04-08 14:17:00,
2013-04-08 10:22:00,62.4,47.5,30.12,SW,225,2.0,3.0,58,0.00,,---,0.00,VWS V14.01,2013-04-08 14:22:00,
2013-04-08 10:27:00,62.9,47.9,30.12,SW,225,1.0,2.0,58,0.00,,---,0.00,VWS V14.01,2013-04-08 14:27:00,
2013-04-08 10:32:00,63.6,48.1,30.11,SW,232,1.0,3.0,57,0.00,,---,0.00,VWS V14.01,2013-04-08 14:32:00,
2013-04-08 10:37:00,64.3,49.2,30.11,SW,224,0.0,2.0,58,0.00,,---,0.00,VWS V14.01,2013-04-08 14:37:00,
2013-04-08 10:42:00,65.2,49.1,30.12,SW,215,1.0,2.0,56,0.00,,---,0.00,VWS V14.01,2013-04-08 14:42:00,
2013-04-08 10:47:00,65.8,48.7,30.11,SW,215,0.0,2.0,54,0.00,,---,0.00,VWS V14.01,2013-04-08 14:47:00,
2013-04-08 10:52:00,66.4,50.2,30.11,SW,215,0.0,1.0,56,0.00,,---,0.00,VWS V14.01,2013-04-08 14:52:00,
2013-04-08 10:57:00,67.1,49.4,30.11,SSW,200,1.0,4.0,53,0.00,,---,0.00,VWS V14.01,2013-04-08 14:57:00,
2013-04-08 11:02:00,68.0,49.2,30.11,SW,222,0.0,3.0,51,0.00,,---,0.00,VWS V14.01,2013-04-08 15:02:00,
2013-04-08 11:07:00,69.0,50.1,30.11,SW,235,0.0,3.0,51,0.00,,---,0.00,VWS V14.01,2013-04-08 15:07:00,
2013-04-08 11:12:00,69.7,49.7,30.11,SW,235,0.0,3.0,49,0.00,,---,0.00,VWS V14.01,2013-04-08 15:12:00,
2013-04-08 11:17:00,70.4,50.3,30.11,SSE,150,2.0,5.0,49,0.00,,---,0.00,VWS V14.01,2013-04-08 15:17:00,
2013-04-08 11:22:00,71.3,50.6,30.11,SE,132,1.0,5.0,48,0.00,,---,0.00,VWS V14.01,2013-04-08 15:22:00,
2013-04-08 11:27:00,71.7,49.2,30.11,South,178,1.0,7.0,45,0.00,,---,0.00,VWS V14.01,2013-04-08 15:27:00,
2013-04-08 11:32:00,72.0,50.1,30.11,SW,224,2.0,4.0,46,0.00,,---,0.00,VWS V14.01,2013-04-08 15:32:00,
2013-04-08 11:37:00,72.7,50.8,30.11,SW,220,1.0,5.0,46,0.00,,---,0.00,VWS V14.01,2013-04-08 15:37:00,
2013-04-08 11:42:00,73.2,51.2,30.11,South,190,1.0,3.0,46,0.00,,---,0.00,VWS V14.01,2013-04-08 15:42:00,
2013-04-08 11:47:00,74.0,50.1,30.10,SSE,160,3.0,7.0,43,0.00,,---,0.00,VWS V14.01,2013-04-08 15:47:00,
2013-04-08 11:52:00,74.6,49.4,30.10,SSW,203,2.0,8.0,41,0.00,,---,0.00,VWS V14.01,2013-04-08 15:52:00,
2013-04-08 11:57:00,75.0,51.0,30.10,SE,142,2.0,6.0,43,0.00,,---,0.00,VWS V14.01,2013-04-08 15:57:00,
2013-04-08 12:02:00,75.0,49.7,30.10,South,174,4.0,5.0,41,0.00,,---,0.00,VWS V14.01,2013-04-08 16:02:00,
2013-04-08 12:07:00,75.5,50.8,30.09,SW,226,1.0,8.0,42,0.00,,---,0.00,VWS V14.01,2013-04-08 16:07:00,
2013-04-08 12:12:00,75.9,50.5,30.09,SSW,194,1.0,4.0,41,0.00,,---,0.00,VWS V14.01,2013-04-08 16:12:00,
2013-04-08 12:17:00,76.2,50.1,30.09,West,273,3.0,9.0,40,0.00,,---,0.00,VWS V14.01,2013-04-08 16:17:00,
2013-04-08 12:22:00,76.2,48.8,30.09,WSW,252,2.0,4.0,38,0.00,,---,0.00,VWS V14.01,2013-04-08 16:22:00,
2013-04-08 12:27:00,76.4,49.6,30.08,SE,126,0.0,4.0,39,0.00,,---,0.00,VWS V14.01,2013-04-08 16:27:00,
2013-04-08 12:32:00,76.8,50.0,30.08,SSW,211,1.0,6.0,39,0.00,,---,0.00,VWS V14.01,2013-04-08 16:32:00,
2013-04-08 12:37:00,77.4,49.8,30.08,SSE,163,5.0,7.0,38,0.00,,---,0.00,VWS V14.01,2013-04-08 16:37:00,
2013-04-08 12:42:00,77.9,49.6,30.08,SE,140,2.0,6.0,37,0.00,,---,0.00,VWS V14.01,2013-04-08 16:42:00,
2013-04-08 12:47:00,78.2,49.8,30.08,SSE,160,6.0,11.0,37,0.00,,---,0.00,VWS V14.01,2013-04-08 16:47:00,
2013-04-08 12:52:00,78.3,49.9,30.07,East,90,1.0,7.0,37,0.00,,---,0.00,VWS V14.01,2013-04-08 16:52:00,
2013-04-08 12:57:00,78.7,51.0,30.07,West,262,2.0,5.0,38,0.00,,---,0.00,VWS V14.01,2013-04-08 16:57:00,
2013-04-08 13:02:00,79.2,50.0,30.06,WSW,243,2.0,6.0,36,0.00,,---,0.00,VWS V14.01,2013-04-08 17:02:00,
2013-04-08 13:07:00,79.7,49.7,30.06,SE,129,4.0,12.0,35,0.00,,---,0.00,VWS V14.01,2013-04-08 17:07:00,
2013-04-08 13:12:00,79.8,49.0,30.06,SW,223,4.0,6.0,34,0.00,,---,0.00,VWS V14.01,2013-04-08 17:12:00,
2013-04-08 13:17:00,80.1,48.4,30.06,South,190,4.0,12.0,33,0.00,,---,0.00,VWS V14.01,2013-04-08 17:17:00,
2013-04-08 13:22:00,79.6,48.0,30.06,SW,221,6.0,9.0,33,0.00,,---,0.00,VWS V14.01,2013-04-08 17:22:00,
2013-04-08 13:28:00,78.9,49.0,30.05,South,186,2.0,12.0,35,0.00,,---,0.00,VWS V14.01,2013-04-08 17:28:00,
2013-04-08 13:33:00,79.1,46.7,30.05,SSW,211,5.0,8.0,32,0.00,,---,0.00,VWS V14.01,2013-04-08 17:33:00,
2013-04-08 13:38:00,79.9,48.3,30.05,SW,219,4.0,6.0,33,0.00,,---,0.00,VWS V14.01,2013-04-08 17:38:00,
2013-04-08 13:43:00,80.3,49.4,30.05,South,174,3.0,13.0,34,0.00,,---,0.00,VWS V14.01,2013-04-08 17:43:00,
2013-04-08 13:48:00,80.8,49.8,30.05,SSW,192,7.0,9.0,34,0.00,,---,0.00,VWS V14.01,2013-04-08 17:48:00,
2013-04-08 13:53:00,81.1,48.5,30.05,South,179,6.0,10.0,32,0.00,,---,0.00,VWS V14.01,2013-04-08 17:53:00,
2013-04-08 13:58:00,80.8,49.0,30.05,WSW,243,5.0,9.0,33,0.00,,---,0.00,VWS V14.01,2013-04-08 17:58:00,
2013-04-08 14:03:00,80.8,48.2,30.05,WNW,301,3.0,8.0,32,0.00,,---,0.00,VWS V14.01,2013-04-08 18:03:00,
2013-04-08 14:08:00,80.8,49.0,30.05,NW,312,1.0,10.0,33,0.00,,---,0.00,VWS V14.01,2013-04-08 18:08:00,
2013-04-08 14:13:00,80.3,48.6,30.05,South,187,4.0,10.0,33,0.00,,---,0.00,VWS V14.01,2013-04-08 18:13:00,
2013-04-08 14:17:00,79.7,48.9,30.05,South,180,6.0,13.0,34,0.00,,---,0.00,VWS V14.01,2013-04-08 18:17:00,
2013-04-08 14:22:00,79.2,48.4,30.05,South,182,8.0,9.0,34,0.00,,---,0.00,VWS V14.01,2013-04-08 18:22:00,
2013-04-08 14:27:00,79.2,50.0,30.04,South,191,4.0,12.0,36,0.00,,---,0.00,VWS V14.01,2013-04-08 18:27:00,
2013-04-08 14:32:00,79.3,49.3,30.04,South,184,5.0,11.0,35,0.00,,---,0.00,VWS V14.01,2013-04-08 18:32:00,
2013-04-08 14:37:00,79.5,49.5,30.04,SSW,193,6.0,11.0,35,0.00,,---,0.00,VWS V14.01,2013-04-08 18:37:00,
2013-04-08 14:42:00,79.7,50.4,30.03,SSW,204,5.0,12.0,36,0.00,,---,0.00,VWS V14.01,2013-04-08 18:42:00,
2013-04-08 14:47:00,79.8,49.7,30.03,SW,234,2.0,9.0,35,0.00,,---,0.00,VWS V14.01,2013-04-08 18:47:00,
2013-04-08 14:52:00,80.0,50.7,30.02,SE,133,6.0,11.0,36,0.00,,---,0.00,VWS V14.01,2013-04-08 18:52:00,
2013-04-08 14:57:00,79.7,50.4,30.02,SW,222,1.0,11.0,36,0.00,,---,0.00,VWS V14.01,2013-04-08 18:57:00,
2013-04-08 15:02:00,79.6,49.6,30.03,SSW,194,6.0,14.0,35,0.00,,---,0.00,VWS V14.01,2013-04-08 19:02:00,
2013-04-08 15:07:00,79.7,50.4,30.02,South,186,6.0,14.0,36,0.00,,---,0.00,VWS V14.01,2013-04-08 19:07:00,
2013-04-08 15:12:00,80.2,50.8,30.02,South,186,1.0,7.0,36,0.00,,---,0.00,VWS V14.01,2013-04-08 19:12:00,
2013-04-08 15:17:00,80.3,49.4,30.02,SSE,147,7.0,7.0,34,0.00,,---,0.00,VWS V14.01,2013-04-08 19:17:00,
2013-04-08 15:22:00,80.3,49.4,30.02,SSW,213,1.0,10.0,34,0.00,,---,0.00,VWS V14.01,2013-04-08 19:22:00,
2013-04-08 15:27:00,80.1,49.2,30.02,SSE,147,4.0,6.0,34,0.00,,---,0.00,VWS V14.01,2013-04-08 19:27:00,
2013-04-08 15:32:00,79.8,48.2,30.02,SSE,153,9.0,10.0,33,0.00,,---,0.00,VWS V14.01,2013-04-08 19:32:00,
2013-04-08 15:37:00,79.4,47.8,30.01,SSW,208,4.0,12.0,33,0.00,,---,0.00,VWS V14.01,2013-04-08 19:37:00,
2013-04-08 15:42:00,79.3,47.7,30.01,SSW,197,5.0,10.0,33,0.00,,---,0.00,VWS V14.01,2013-04-08 19:42:00,
2013-04-08 15:47:00,79.7,48.9,30.01,WSW,246,7.0,12.0,34,0.00,,---,0.00,VWS V14.01,2013-04-08 19:47:00,
2013-04-08 15:52:00,79.6,48.8,30.01,SSW,196,2.0,11.0,34,0.00,,---,0.00,VWS V14.01,2013-04-08 19:52:00,
2013-04-08 15:57:00,79.9,49.0,30.00,South,191,3.0,12.0,34,0.00,,---,0.00,VWS V14.01,2013-04-08 19:57:00,
2013-04-08 16:02:00,80.4,48.7,30.00,South,178,5.0,12.0,33,0.00,,---,0.00,VWS V14.01,2013-04-08 20:02:00,
2013-04-08 16:07:00,80.5,48.8,30.00,SSW,196,6.0,10.0,33,0.00,,---,0.00,VWS V14.01,2013-04-08 20:07:00,
2013-04-08 16:12:00,80.2,48.5,30.00,SW,221,5.0,11.0,33,0.00,,---,0.00,VWS V14.01,2013-04-08 20:12:00,
2013-04-08 16:17:00,80.1,48.4,30.00,SW,218,1.0,9.0,33,0.00,,---,0.00,VWS V14.01,2013-04-08 20:17:00,
2013-04-08 16:22:00,79.9,48.3,30.00,SW,217,3.0,14.0,33,0.00,,---,0.00,VWS V14.01,2013-04-08 20:22:00,
2013-04-08 16:27:00,79.8,48.2,30.00,SSW,195,4.0,10.0,33,0.00,,---,0.00,VWS V14.01,2013-04-08 20:27:00,
2013-04-08 16:32:00,79.7,48.1,30.00,SSE,159,11.0,15.0,33,0.00,,---,0.00,VWS V14.01,2013-04-08 20:32:00,
2013-04-08 16:37:00,79.7,48.9,29.99,South,174,4.0,19.0,34,0.00,,---,0.00,VWS V14.01,2013-04-08 20:37:00,
2013-04-08 16:42:00,79.7,48.1,29.99,SSW,212,6.0,14.0,33,0.00,,---,0.00,VWS V14.01,2013-04-08 20:42:00,
2013-04-08 16:47:00,79.5,47.1,29.99,South,190,4.0,11.0,32,0.00,,---,0.00,VWS V14.01,2013-04-08 20:47:00,
2013-04-08 16:52:00,79.4,47.8,29.99,South,173,7.0,19.0,33,0.00,,---,0.00,VWS V14.01,2013-04-08 20:52:00,
2013-04-08 16:57:00,79.4,48.6,29.99,SW,216,4.0,8.0,34,0.00,,---,0.00,VWS V14.01,2013-04-08 20:57:00,
2013-04-08 17:02:00,79.6,48.8,29.99,SSW,207,5.0,6.0,34,0.00,,---,0.00,VWS V14.01,2013-04-08 21:02:00,
2013-04-08 17:07:00,79.7,49.7,29.99,SE,142,5.0,11.0,35,0.00,,---,0.00,VWS V14.01,2013-04-08 21:07:00,
2013-04-08 17:12:00,79.5,49.5,29.99,SW,225,5.0,11.0,35,0.00,,---,0.00,VWS V14.01,2013-04-08 21:12:00,
2013-04-08 17:17:00,79.4,50.2,29.99,WSW,240,5.0,16.0,36,0.00,,---,0.00,VWS V14.01,2013-04-08 21:17:00,
2013-04-08 17:22:00,79.0,49.8,29.99,SW,225,7.0,13.0,36,0.00,,---,0.00,VWS V14.01,2013-04-08 21:22:00,
2013-04-08 17:27:00,78.4,50.7,29.99,West,281,3.0,10.0,38,0.00,,---,0.00,VWS V14.01,2013-04-08 21:27:00,
2013-04-08 17:32:00,78.1,51.2,29.99,South,186,6.0,11.0,39,0.00,,---,0.00,VWS V14.01,2013-04-08 21:32:00,
2013-04-08 17:37:00,77.8,50.9,29.99,SW,218,7.0,10.0,39,0.00,,---,0.00,VWS V14.01,2013-04-08 21:37:00,
2013-04-08 17:42:00,77.4,50.5,30.00,West,260,9.0,11.0,39,0.00,,---,0.00,VWS V14.01,2013-04-08 21:42:00,
2013-04-08 17:47:00,77.1,51.6,29.99,SSW,205,7.0,10.0,41,0.00,,---,0.00,VWS V14.01,2013-04-08 21:47:00,
2013-04-08 17:52:00,76.8,52.0,30.00,South,188,2.0,11.0,42,0.00,,---,0.00,VWS V14.01,2013-04-08 21:52:00,
2013-04-08 17:57:00,76.6,51.8,30.00,South,169,5.0,10.0,42,0.00,,---,0.00,VWS V14.01,2013-04-08 21:57:00,
2013-04-08 18:02:00,76.5,52.4,30.00,SW,219,5.0,8.0,43,0.00,,---,0.00,VWS V14.01,2013-04-08 22:02:00,
2013-04-08 18:07:00,76.5,52.4,29.99,SW,227,3.0,11.0,43,0.00,,---,0.00,VWS V14.01,2013-04-08 22:07:00,
2013-04-08 18:12:00,76.4,52.3,29.99,South,191,2.0,6.0,43,0.00,,---,0.00,VWS V14.01,2013-04-08 22:12:00,
2013-04-08 18:17:00,76.4,52.3,29.99,WSW,251,3.0,8.0,43,0.00,,---,0.00,VWS V14.01,2013-04-08 22:17:00,
2013-04-08 18:22:00,76.4,52.9,30.00,SSW,199,10.0,14.0,44,0.00,,---,0.00,VWS V14.01,2013-04-08 22:22:00,
2013-04-08 18:27:00,76.2,52.7,30.00,SSE,151,3.0,10.0,44,0.00,,---,0.00,VWS V14.01,2013-04-08 22:27:00,
2013-04-08 18:32:00,76.0,52.5,30.00,SW,215,5.0,8.0,44,0.00,,---,0.00,VWS V14.01,2013-04-08 22:32:00,
2013-04-08 18:37:00,75.8,53.0,30.00,WSW,246,4.0,8.0,45,0.00,,---,0.00,VWS V14.01,2013-04-08 22:37:00,
2013-04-08 18:42:00,75.6,52.8,30.00,SW,217,1.0,8.0,45,0.00,,---,0.00,VWS V14.01,2013-04-08 22:42:00,
2013-04-08 18:47:00,75.4,52.6,30.00,South,171,3.0,8.0,45,0.00,,---,0.00,VWS V14.01,2013-04-08 22:47:00,
2013-04-08 18:52:00,75.0,52.8,30.00,SSW,202,5.0,9.0,46,0.00,,---,0.00,VWS V14.01,2013-04-08 22:52:00,
2013-04-08 18:57:00,74.7,53.2,30.01,SSW,205,2.0,7.0,47,0.00,,---,0.00,VWS V14.01,2013-04-08 22:57:00,
2013-04-08 19:02:00,74.4,53.5,30.01,SSW,197,6.0,7.0,48,0.00,,---,0.00,VWS V14.01,2013-04-08 23:02:00,
2013-04-08 19:07:00,74.2,53.3,30.01,SSE,161,2.0,7.0,48,0.00,,---,0.00,VWS V14.01,2013-04-08 23:07:00,
2013-04-08 19:12:00,74.0,53.1,30.01,SSW,211,6.0,9.0,48,0.00,,---,0.00,VWS V14.01,2013-04-08 23:12:00,
2013-04-08 19:17:00,73.8,52.9,30.01,South,189,2.0,6.0,48,0.00,,---,0.00,VWS V14.01,2013-04-08 23:17:00,
2013-04-08 19:22:00,73.5,53.2,30.01,SSE,165,3.0,6.0,49,0.00,,---,0.00,VWS V14.01,2013-04-08 23:22:00,
2013-04-08 19:27:00,73.3,53.0,30.01,ESE,122,2.0,8.0,49,0.00,,---,0.00,VWS V14.01,2013-04-08 23:27:00,
2013-04-08 19:32:00,73.0,53.3,30.01,SSW,198,1.0,6.0,50,0.00,,---,0.00,VWS V14.01,2013-04-08 23:32:00,
2013-04-08 19:37:00,72.7,53.0,30.01,SSW,208,1.0,4.0,50,0.00,,---,0.00,VWS V14.01,2013-04-08 23:37:00,
2013-04-08 19:42:00,72.4,52.7,30.01,South,189,4.0,4.0,50,0.00,,---,0.00,VWS V14.01,2013-04-08 23:42:00,
2013-04-08 19:47:00,72.2,53.1,30.01,South,182,3.0,6.0,51,0.00,,---,0.00,VWS V14.01,2013-04-08 23:47:00,
2013-04-08 19:52:00,71.9,52.8,30.01,SE,145,4.0,4.0,51,0.00,,---,0.00,VWS V14.01,2013-04-08 23:52:00,
2013-04-08 19:57:00,71.7,53.2,30.01,SW,216,4.0,6.0,52,0.00,,---,0.00,VWS V14.01,2013-04-08 23:57:00,
2013-04-08 20:02:00,71.4,52.9,30.01,SSW,196,2.0,5.0,52,0.00,,---,0.00,VWS V14.01,2013-04-09 00:02:00,
2013-04-08 20:07:00,71.2,52.7,30.01,South,188,2.0,6.0,52,0.00,,---,0.00,VWS V14.01,2013-04-09 00:07:00,
2013-04-08 20:12:00,71.0,52.5,30.01,SSW,192,0.0,4.0,52,0.00,,---,0.00,VWS V14.01,2013-04-09 00:12:00,
2013-04-08 20:17:00,70.7,52.2,30.01,SSW,198,1.0,5.0,52,0.00,,---,0.00,VWS V14.01,2013-04-09 00:17:00,
2013-04-08 20:22:00,70.6,52.7,30.01,SSW,198,3.0,5.0,53,0.00,,---,0.00,VWS V14.01,2013-04-09 00:22:00,
2013-04-08 20:27:00,70.4,52.5,30.02,SSW,194,2.0,4.0,53,0.00,,---,0.00,VWS V14.01,2013-04-09 00:27:00,
2013-04-08 20:32:00,70.3,52.4,30.02,SSW,205,2.0,6.0,53,0.00,,---,0.00,VWS V14.01,2013-04-09 00:32:00,
2013-04-08 20:37:00,70.3,52.4,30.03,SW,230,3.0,5.0,53,0.00,,---,0.00,VWS V14.01,2013-04-09 00:37:00,
2013-04-08 20:42:00,70.2,51.8,30.03,SSW,211,3.0,7.0,52,0.00,,---,0.00,VWS V14.01,2013-04-09 00:42:00,
2013-04-08 20:47:00,70.2,52.3,30.03,SW,214,3.0,6.0,53,0.00,,---,0.00,VWS V14.01,2013-04-09 00:47:00,
2013-04-08 20:52:00,70.1,52.2,30.03,SSW,202,1.0,5.0,53,0.00,,---,0.00,VWS V14.01,2013-04-09 00:52:00,
2013-04-08 20:57:00,69.9,52.0,30.03,SSW,208,2.0,5.0,53,0.00,,---,0.00,VWS V14.01,2013-04-09 00:57:00,
2013-04-08 21:02:00,69.8,51.9,30.03,SSW,203,2.0,4.0,53,0.00,,---,0.00,VWS V14.01,2013-04-09 01:02:00,
2013-04-08 21:07:00,69.6,52.2,30.03,SSW,204,6.0,6.0,54,0.00,,---,0.00,VWS V14.01,2013-04-09 01:07:00,
2013-04-08 21:12:00,69.5,52.2,30.04,SW,228,3.0,4.0,54,0.00,,---,0.00,VWS V14.01,2013-04-09 01:12:00,
2013-04-08 21:17:00,69.5,52.2,30.04,SSW,204,3.0,5.0,54,0.00,,---,0.00,VWS V14.01,2013-04-09 01:17:00,
2013-04-08 21:22:00,69.5,52.2,30.04,South,186,3.0,4.0,54,0.00,,---,0.00,VWS V14.01,2013-04-09 01:22:00,
2013-04-08 21:27:00,69.5,52.2,30.04,SSW,203,2.0,5.0,54,0.00,,---,0.00,VWS V14.01,2013-04-09 01:27:00,
2013-04-08 21:32:00,69.4,52.0,30.03,South,173,4.0,5.0,54,0.00,,---,0.00,VWS V14.01,2013-04-09 01:32:00,
2013-04-08 21:37:00,69.4,52.0,30.04,South,191,2.0,4.0,54,0.00,,---,0.00,VWS V14.01,2013-04-09 01:37:00,
2013-04-08 21:42:00,69.2,51.9,30.04,SSW,192,4.0,4.0,54,0.00,,---,0.00,VWS V14.01,2013-04-09 01:42:00,
2013-04-08 21:47:00,69.1,51.8,30.04,SSW,196,2.0,5.0,54,0.00,,---,0.00,VWS V14.01,2013-04-09 01:47:00,
2013-04-08 21:52:00,69.0,52.2,30.04,South,185,0.0,7.0,55,0.00,,---,0.00,VWS V14.01,2013-04-09 01:52:00,
2013-04-08 21:57:00,69.0,52.2,30.04,South,177,5.0,6.0,55,0.00,,---,0.00,VWS V14.01,2013-04-09 01:57:00,
2013-04-08 22:02:00,68.8,52.5,30.04,South,180,1.0,6.0,56,0.00,,---,0.00,VWS V14.01,2013-04-09 02:02:00,
2013-04-08 22:07:00,68.7,52.4,30.04,SSW,202,3.0,5.0,56,0.00,,---,0.00,VWS V14.01,2013-04-09 02:07:00,
2013-04-08 22:12:00,68.6,52.3,30.04,South,176,5.0,5.0,56,0.00,,---,0.00,VWS V14.01,2013-04-09 02:12:00,
2013-04-08 22:17:00,68.5,52.2,30.04,SSE,161,2.0,7.0,56,0.00,,---,0.00,VWS V14.01,2013-04-09 02:17:00,
2013-04-08 22:22:00,68.4,52.1,30.03,SSW,196,4.0,7.0,56,0.00,,---,0.00,VWS V14.01,2013-04-09 02:22:00,
2013-04-08 22:27:00,68.3,52.5,30.03,SSW,209,3.0,6.0,57,0.00,,---,0.00,VWS V14.01,2013-04-09 02:27:00,
2013-04-08 22:32:00,68.1,52.3,30.04,SSW,193,3.0,5.0,57,0.00,,---,0.00,VWS V14.01,2013-04-09 02:32:00,
2013-04-08 22:37:00,68.0,52.2,30.04,SSW,205,0.0,5.0,57,0.00,,---,0.00,VWS V14.01,2013-04-09 02:37:00,
2013-04-08 22:43:00,67.8,52.5,30.04,SW,215,2.0,5.0,58,0.00,,---,0.00,VWS V14.01,2013-04-09 02:43:00,
2013-04-08 22:48:00,67.6,52.3,30.04,SW,215,1.0,2.0,58,0.00,,---,0.00,VWS V14.01,2013-04-09 02:48:00,
2013-04-08 22:53:00,67.4,52.1,30.05,SW,215,0.0,1.0,58,0.00,,---,0.00,VWS V14.01,2013-04-09 02:53:00,
2013-04-08 22:58:00,67.2,51.9,30.05,SW,215,0.0,0.0,58,0.00,,---,0.00,VWS V14.01,2013-04-09 02:58:00,
2013-04-08 23:03:00,66.9,52.1,30.05,SW,215,1.0,1.0,59,0.00,,---,0.00,VWS V14.01,2013-04-09 03:03:00,
2013-04-08 23:07:00,66.7,51.9,30.05,SW,215,0.0,1.0,59,0.00,,---,0.00,VWS V14.01,2013-04-09 03:07:00,
2013-04-08 23:12:00,66.6,52.3,30.05,SW,215,0.0,1.0,60,0.00,,---,0.00,VWS V14.01,2013-04-09 03:12:00,
2013-04-08 23:18:00,66.4,52.1,30.05,SW,215,0.0,0.0,60,0.00,,---,0.00,VWS V14.01,2013-04-09 03:18:00,
2013-04-08 23:22:00,66.2,51.9,30.05,SW,215,0.0,0.0,60,0.00,,---,0.00,VWS V14.01,2013-04-09 03:22:00,
2013-04-08 23:27:00,66.2,51.9,30.06,SW,215,0.0,1.0,60,0.00,,---,0.00,VWS V14.01,2013-04-09 03:27:00,
2013-04-08 23:32:00,66.2,51.9,30.06,SW,215,0.0,0.0,60,0.00,,---,0.00,VWS V14.01,2013-04-09 03:32:00,
2013-04-08 23:37:00,66.3,52.0,30.06,SW,215,0.0,0.0,60,0.00,,---,0.00,VWS V14.01,2013-04-09 03:37:00,
2013-04-08 23:42:00,66.3,52.0,30.06,SW,215,0.0,1.0,60,0.00,,---,0.00,VWS V14.01,2013-04-09 03:42:00,
2013-04-08 23:47:00,66.2,51.9,30.06,SW,215,0.0,0.0,60,0.00,,---,0.00,VWS V14.01,2013-04-09 03:47:00,
2013-04-08 23:52:00,65.9,52.1,30.06,SW,215,0.0,0.0,61,0.00,,---,0.00,VWS V14.01,2013-04-09 03:52:00,
2013-04-08 23:57:00,65.7,51.9,30.06,SW,215,0.0,0.0,61,0.00,,---,0.00,VWS V14.01,2013-04-09 03:57:00,